Toledo Metcalf, OH

7:10 AM EST on December 17, 2017 (GMT -0500)
Metcalf

Weather History for KTDZ - January, 2013

Change the Weather History Date:

Monday, January 28, 2013

  Actual Average (KTOL) Record (KTOL)
Temperature  
Mean Temperature 40 °F -  
Max Temperature 48 °F 31 °F 61 °F (2002)
Min Temperature 33 °F 15 °F -10 °F (1977)
Degree Days  
Heating Degree Days 24    
Moisture  
Dew Point 40 °F    
Average Humidity 92    
Maximum Humidity 100    
Minimum Humidity 75    
Precipitation  
Precipitation 0.20 in - - ()
Sea Level Pressure  
Sea Level Pressure 29.99 in    
Wind  
Wind Speed 12 mph (SSW)    
Max Wind Speed 16 mph    
Max Gust Speed 24 mph    
Visibility 3 miles    
Events Fog , Rain    
Averages and records for this station are not official NWS values.
T = Trace of Precipitation, MM = Missing Value Source: NWS Daily Summary

Daily Weather History Graph

Daily Weather History Graph

Search for Another Location

Airport or City:

Trip Planner

Search our weather history database for the weather conditions in past years. The results will help you decide how hot, cold, wet, or windy it might be!

Date:

Astronomy

Jan. 28, 2013 Rise Set
Actual Time 7:49 AM EST 5:45 PM EST
Civil Twilight 7:19 AM EST 6:14 PM EST
Nautical Twilight 6:46 AM EST 6:48 PM EST
Astronomical Twilight 6:13 AM EST 7:20 PM EST
Moon 7:41 PM EST (1/28) 8:12 AM EST (1/28)
Length of Visible Light 10h 55m
Length of Day
9h 55m
Full, 98% of the Moon is Illuminated
Jan 28
Full
Feb 3
Last Quarter
Feb 10
New
Feb 17
First Quarter
Feb 25
Full

Hourly Weather History & Observations

Time (EST) Temp. Windchill Dew Point Humidity Pressure Visibility Wind Dir Wind Speed Gust Speed Precip Events Conditions
12:23 AM 33.8 °F 25.3 °F 26.6 °F 75% 30.13 in 6.0 mi SE 11.5 mph - 0.01 in Rain Light Rain
12:53 AM 33.1 °F 23.9 °F 28.0 °F 82% 30.14 in 4.0 mi SSE 12.7 mph - 0.04 in Rain Light Freezing Rain
1:16 AM 33.8 °F 25.3 °F 30.2 °F 87% 30.11 in 3.0 mi South 11.5 mph - 0.05 in Rain Light Freezing Rain
1:26 AM 33.8 °F 26.4 °F 30.2 °F 87% 30.11 in 3.0 mi South 9.2 mph - 0.06 in Rain Light Freezing Rain
1:36 AM 33.8 °F 25.8 °F 30.2 °F 87% 30.11 in 3.0 mi SSE 10.4 mph - 0.08 in Rain Light Rain
1:45 AM 33.8 °F 25.3 °F 30.2 °F 87% 30.09 in 3.0 mi SSE 11.5 mph - 0.08 in Rain Light Freezing Rain
1:53 AM 33.1 °F 24.9 °F 30.9 °F 92% 30.11 in 4.0 mi SSE 10.4 mph - 0.09 in Rain Light Freezing Rain
2:18 AM 33.8 °F 25.8 °F 30.2 °F 87% 30.08 in 5.0 mi SSE 10.4 mph - 0.00 in Rain Light Freezing Rain
2:26 AM 33.8 °F 26.4 °F 32.0 °F 93% 30.08 in 5.0 mi South 9.2 mph - 0.00 in   Overcast
2:53 AM 35.1 °F 26.4 °F 32.0 °F 89% 30.08 in 4.0 mi South 12.7 mph - 0.00 in   Overcast
3:04 AM 35.6 °F 26.6 °F 32.0 °F 87% 30.05 in 6.0 mi South 13.8 mph - N/A   Overcast
3:38 AM 35.6 °F 26.6 °F 33.8 °F 93% 30.03 in 5.0 mi South 13.8 mph - 0.00 in Rain Light Rain
3:53 AM 35.1 °F 26.4 °F 33.1 °F 92% 30.04 in 6.0 mi South 12.7 mph 21.9 mph 0.01 in Rain Light Rain
4:53 AM 36.0 °F 27.5 °F 34.0 °F 93% 30.02 in 4.0 mi South 12.7 mph - N/A   Overcast
5:53 AM 36.0 °F 27.1 °F 35.1 °F 97% 30.00 in 4.0 mi SSW 13.8 mph - 0.00 in   Overcast
6:53 AM 37.0 °F 29.3 °F 35.1 °F 93% 29.98 in 3.0 mi South 11.5 mph - N/A   Overcast
7:26 AM 37.4 °F 29.8 °F 35.6 °F 93% 29.95 in 2.5 mi South 11.5 mph - 0.00 in Rain Light Rain
7:48 AM 37.4 °F 30.8 °F 37.4 °F 100% 29.95 in 3.0 mi South 9.2 mph - 0.00 in   Overcast
7:53 AM 39.0 °F 32.8 °F 37.0 °F 93% 29.97 in 3.0 mi South 9.2 mph - 0.00 in   Overcast
8:30 AM 39.2 °F 32.5 °F 37.4 °F 93% 29.95 in 2.0 mi SSW 10.4 mph - N/A   Overcast
8:53 AM 41.0 °F 33.9 °F 39.0 °F 93% 29.96 in 2.5 mi SSW 12.7 mph - N/A   Overcast
9:01 AM 42.8 °F 36.6 °F 39.2 °F 87% 29.94 in 3.0 mi SSW 11.5 mph - N/A   Overcast
9:27 AM 42.8 °F 35.4 °F 41.0 °F 93% 29.93 in 4.0 mi SSW 15.0 mph - N/A   Overcast
9:53 AM 45.0 °F 37.9 °F 42.1 °F 90% 29.94 in 5.0 mi SW 16.1 mph 23.0 mph N/A   Overcast
10:21 AM 44.6 °F 37.4 °F 42.8 °F 93% 29.93 in 2.0 mi SW 16.1 mph 23.0 mph 0.01 in Rain Light Rain
10:39 AM 44.6 °F 37.4 °F 42.8 °F 93% 29.93 in 1.2 mi SW 16.1 mph 24.2 mph 0.04 in Rain Light Rain
10:51 AM 46.4 °F 39.8 °F 42.8 °F 87% 29.94 in 3.0 mi SW 16.1 mph - 0.05 in Rain Light Rain
10:52 AM 46.0 °F 39.3 °F 43.0 °F 89% 29.95 in 3.0 mi SW 16.1 mph - 0.05 in Rain Light Rain
11:13 AM 44.6 °F 38.1 °F 42.8 °F 93% 29.94 in 2.0 mi SW 13.8 mph - N/A   Overcast
11:38 AM 46.4 °F 39.8 °F 44.6 °F 93% 29.94 in 3.0 mi SW 16.1 mph 24.2 mph N/A   Overcast
11:53 AM 46.0 °F 39.3 °F 44.1 °F 93% 29.95 in 4.0 mi SW 16.1 mph - N/A   Overcast
12:53 PM 46.9 °F - 44.1 °F 90% 29.93 in 3.0 mi SW 15.0 mph - N/A   Overcast
1:00 PM 46.4 °F 39.8 °F 44.6 °F 93% 29.92 in 2.5 mi SW 16.1 mph 21.9 mph N/A   Overcast
1:03 PM 46.4 °F 39.8 °F 44.6 °F 93% 29.92 in 3.0 mi SW 16.1 mph 21.9 mph N/A   Overcast
1:11 PM 46.4 °F 40.1 °F 44.6 °F 93% 29.91 in 2.5 mi SW 15.0 mph - N/A   Overcast
1:53 PM 46.9 °F - 45.0 °F 93% 29.92 in 1.5 mi SW 12.7 mph - N/A   Overcast
2:23 PM 48.2 °F - 46.4 °F 93% 29.91 in 2.0 mi SW 15.0 mph - N/A   Overcast
2:34 PM 48.2 °F - 46.4 °F 93% 29.91 in 1.8 mi SW 16.1 mph - N/A   Overcast
2:49 PM 48.2 °F - 46.4 °F 93% 29.90 in 2.0 mi SW 13.8 mph - N/A   Overcast
2:53 PM 48.0 °F - 46.0 °F 93% 29.91 in 2.0 mi SW 13.8 mph - N/A   Overcast
3:17 PM 48.2 °F - 46.4 °F 93% 29.91 in 1.8 mi SW 15.0 mph - N/A   Overcast
3:41 PM 48.2 °F - 46.4 °F 93% 29.92 in 2.0 mi SW 13.8 mph - N/A   Overcast
3:53 PM 48.0 °F - 46.0 °F 93% 29.93 in 2.0 mi SW 13.8 mph 21.9 mph N/A   Overcast
4:53 PM 48.0 °F - 46.9 °F 96% 29.95 in 2.0 mi WSW 12.7 mph - N/A   Overcast
5:48 PM 48.2 °F - 46.4 °F 93% 29.96 in 3.0 mi SW 11.5 mph - N/A   Overcast
5:53 PM 48.0 °F - 46.0 °F 93% 29.97 in 3.0 mi SW 10.4 mph - N/A   Overcast
6:12 PM 48.2 °F - 46.4 °F 93% 29.96 in 2.5 mi SW 10.4 mph - N/A   Overcast
6:35 PM 46.4 °F 41.5 °F 46.4 °F 100% 29.97 in 1.8 mi WSW 10.4 mph - N/A   Overcast
6:50 PM 46.4 °F 41.5 °F 46.4 °F 100% 29.98 in 1.0 mi SW 10.4 mph - N/A   Overcast
6:53 PM 46.9 °F - 46.0 °F 97% 29.99 in 1.0 mi SW 8.1 mph - N/A   Overcast
7:04 PM 46.4 °F 41.9 °F 46.4 °F 100% 29.98 in 0.8 mi SW 9.2 mph - N/A   Overcast
7:53 PM 46.0 °F 41.4 °F 45.0 °F 96% 30.00 in 0.5 mi SW 9.2 mph - N/A Fog Fog
8:53 PM 45.0 °F 41.8 °F 45.0 °F 100% 30.01 in 0.2 mi WSW 5.8 mph - N/A Fog Fog
9:53 PM 44.1 °F 41.5 °F 43.0 °F 96% 30.02 in 0.2 mi SW 4.6 mph - N/A Fog Fog
10:53 PM 44.1 °F - 42.1 °F 93% 30.03 in 0.2 mi Calm Calm - N/A Fog Fog
11:53 PM 42.1 °F 39.2 °F 42.1 °F 100% 30.04 in 0.5 mi ENE 4.6 mph - 0.01 in Fog Fog